EN

Hourly Weather Luhove

Today, 27 November, Friday

Time Temperature Precipitation Wind Pressure Humidity
00:00 +1°C° 0 mm 4 mps 750 mmHg 92%
01:00 0°C° 0 mm 4 mps 750 mmHg 92%
02:00 0°C° 0 mm 4 mps 750 mmHg 93%
03:00 -1°C° 0 mm 4 mps 749 mmHg 92%
04:00 -1°C° 0 mm 4 mps 749 mmHg 90%
05:00 -2°C° 0 mm 4 mps 748 mmHg 89%
06:00 -2°C° 0 mm 4 mps 748 mmHg 87%
07:00 -2°C° 0 mm 5 mps 748 mmHg 86%
08:00 -2°C° 0 mm 5 mps 748 mmHg 85%
09:00 -2°C° 0 mm 5 mps 748 mmHg 81%
10:00 -1°C° 0 mm 5 mps 748 mmHg 78%
11:00 0°C° 0 mm 5 mps 748 mmHg 74%
12:00 0°C° 0 mm 5 mps 748 mmHg 74%
13:00 +1°C° 0 mm 5 mps 747 mmHg 74%
14:00 +1°C° 0 mm 5 mps 747 mmHg 75%
15:00 +1°C° 0.1 mm 5 mps 747 mmHg 77%
16:00 +1°C° 0.1 mm 5 mps 747 mmHg 80%
17:00 +1°C° 0.1 mm 4 mps 747 mmHg 83%
18:00 +1°C° 0.1 mm 4 mps 747 mmHg 84%
19:00 +1°C° 0.1 mm 4 mps 747 mmHg 85%
20:00 +1°C° 0.1 mm 4 mps 747 mmHg 87%
21:00 +1°C° 0 mm 4 mps 747 mmHg 87%
22:00 +1°C° 0 mm 4 mps 747 mmHg 87%
23:00 +1°C° 0 mm 4 mps 748 mmHg 87%

Tomorrow, 28 November, Saturday

Time Temperature Precipitation Wind Pressure Humidity
00:00 +1°C° 0 mm 4 mps 748 mmHg 88%
01:00 +2°C° 0 mm 3 mps 748 mmHg 89%
02:00 +2°C° 0 mm 3 mps 748 mmHg 90%
03:00 +1°C° 0 mm 3 mps 748 mmHg 91%
04:00 +2°C° 0 mm 2 mps 748 mmHg 93%
05:00 +1°C° 0 mm 2 mps 748 mmHg 95%
06:00 +1°C° 0 mm 2 mps 748 mmHg 95%
07:00 +1°C° 0 mm 2 mps 749 mmHg 95%
08:00 +1°C° 0 mm 2 mps 749 mmHg 95%
09:00 +2°C° 0 mm 2 mps 749 mmHg 92%
10:00 +2°C° 0 mm 2 mps 749 mmHg 89%
11:00 +4°C° 0 mm 1 mps 749 mmHg 85%
12:00 +4°C° 0.1 mm 1 mps 749 mmHg 87%
13:00 +4°C° 0.1 mm 1 mps 749 mmHg 89%
14:00 +4°C° 0.1 mm 1 mps 749 mmHg 91%
15:00 +4°C° 0.2 mm 1 mps 749 mmHg 93%
16:00 +4°C° 0.2 mm 1 mps 749 mmHg 95%
17:00 +3°C° 0.2 mm 2 mps 749 mmHg 97%
18:00 +4°C° 0.1 mm 1 mps 749 mmHg 97%
19:00 +4°C° 0.1 mm 1 mps 749 mmHg 97%
20:00 +4°C° 0.1 mm 1 mps 749 mmHg 97%
21:00 +4°C° 0.2 mm 1 mps 749 mmHg 97%
22:00 +4°C° 0.2 mm 1 mps 749 mmHg 97%
23:00 +4°C° 0.2 mm 1 mps 749 mmHg 97%

Day after tomorrow, 29 November, Sunday

Time Temperature Precipitation Wind Pressure Humidity
00:00 +4°C° 0.5 mm 1 mps 749 mmHg 97%
01:00 +4°C° 0.5 mm 1 mps 749 mmHg 97%
02:00 +4°C° 0.5 mm 1 mps 749 mmHg 97%
03:00 +4°C° 0.9 mm 1 mps 748 mmHg 97%
04:00 +3°C° 0.9 mm 1 mps 748 mmHg 97%
05:00 +3°C° 0.9 mm 1 mps 748 mmHg 97%
06:00 +3°C° 0.8 mm 1 mps 748 mmHg 97%
07:00 +3°C° 0.8 mm 1 mps 747 mmHg 97%
08:00 +3°C° 0.8 mm 1 mps 747 mmHg 97%
09:00 +2°C° 0.4 mm 2 mps 748 mmHg 97%
10:00 +2°C° 0.4 mm 2 mps 748 mmHg 96%
11:00 +2°C° 0.4 mm 2 mps 748 mmHg 96%
12:00 +2°C° 0.4 mm 2 mps 748 mmHg 96%
13:00 +2°C° 0.4 mm 2 mps 748 mmHg 96%
14:00 +2°C° 0.4 mm 2 mps 748 mmHg 95%
15:00 +2°C° 0.1 mm 2 mps 749 mmHg 94%
16:00 +2°C° 0.1 mm 2 mps 749 mmHg 92%
17:00 +2°C° 0.1 mm 2 mps 749 mmHg 91%
18:00 +1°C° 0 mm 2 mps 749 mmHg 90%
19:00 +2°C° 0 mm 1 mps 750 mmHg 88%
20:00 +2°C° 0 mm 1 mps 750 mmHg 87%
21:00 +2°C° 0 mm 1 mps 750 mmHg 88%
22:00 +1°C° 0 mm 1 mps 751 mmHg 89%
23:00 +1°C° 0 mm 1 mps 751 mmHg 90%

30 November, Monday

Time Temperature Precipitation Wind Pressure Humidity
00:00 +1°C° 0 mm 1 mps 751 mmHg 91%
01:00 +1°C° 0 mm 1 mps 751 mmHg 92%
02:00 +1°C° 0 mm 1 mps 752 mmHg 93%
03:00 +1°C° 0 mm 1 mps 752 mmHg 93%
04:00 0°C° 0 mm 1 mps 752 mmHg 93%
05:00 -1°C° 0 mm 0 mps 752 mmHg 93%
06:00 -1°C° 0 mm 0 mps 753 mmHg 93%
07:00 -1°C° 0 mm 0 mps 753 mmHg 92%
08:00 -1°C° 0 mm 0 mps 753 mmHg 91%
09:00 +1°C° 0 mm 1 mps 754 mmHg 87%
10:00 +2°C° 0 mm 1 mps 754 mmHg 82%
11:00 +2°C° 0 mm 1 mps 754 mmHg 78%
12:00 +2°C° 0 mm 1 mps 754 mmHg 78%
13:00 +2°C° 0 mm 1 mps 754 mmHg 77%
14:00 +3°C° 0 mm 1 mps 754 mmHg 77%
15:00 +2°C° 0 mm 1 mps 755 mmHg 81%
16:00 +2°C° 0 mm 1 mps 755 mmHg 84%
17:00 +2°C° 0 mm 1 mps 755 mmHg 88%
18:00 +1°C° 0.1 mm 1 mps 755 mmHg 90%
19:00 +1°C° 0.1 mm 1 mps 756 mmHg 92%
20:00 -1°C° 0.1 mm 2 mps 756 mmHg 94%
21:00 -1°C° 0.4 mm 2 mps 756 mmHg 94%
22:00 -1°C° 0.4 mm 3 mps 756 mmHg 95%
23:00 -1°C° 0.4 mm 3 mps 756 mmHg 96%

1 December, Tuesday

Time Temperature Precipitation Wind Pressure Humidity
00:00 -1°C° 0.4 mm 3 mps 756 mmHg 96%
01:00 -2°C° 0.4 mm 4 mps 756 mmHg 96%
02:00 -2°C° 0.4 mm 4 mps 756 mmHg 96%
03:00 -2°C° 0.4 mm 4 mps 756 mmHg 96%
04:00 -2°C° 0.4 mm 4 mps 756 mmHg 96%
05:00 -3°C° 0.4 mm 4 mps 756 mmHg 96%
06:00 -3°C° 0.4 mm 4 mps 756 mmHg 96%
07:00 -3°C° 0.4 mm 4 mps 756 mmHg 97%
08:00 -3°C° 0.4 mm 4 mps 756 mmHg 97%
09:00 -2°C° 0.5 mm 4 mps 756 mmHg 97%
10:00 -1°C° 0.5 mm 3 mps 755 mmHg 98%
11:00 -1°C° 0.5 mm 3 mps 755 mmHg 98%
12:00 -1°C° 0.7 mm 3 mps 755 mmHg 98%
13:00 -1°C° 0.7 mm 2 mps 754 mmHg 99%
14:00 -1°C° 0.7 mm 2 mps 754 mmHg 99%
15:00 -1°C° 0.5 mm 2 mps 754 mmHg 99%
16:00 -1°C° 0.5 mm 2 mps 754 mmHg 99%
17:00 -1°C° 0.5 mm 2 mps 754 mmHg 99%
18:00 -1°C° 0.3 mm 2 mps 754 mmHg 98%
19:00 -1°C° 0.3 mm 2 mps 753 mmHg 98%
20:00 -1°C° 0.3 mm 2 mps 753 mmHg 98%
21:00 -1°C° 0.1 mm 2 mps 753 mmHg 98%
22:00 -1°C° 0.1 mm 2 mps 753 mmHg 98%
23:00 +1°C° 0.1 mm 1 mps 753 mmHg 98%

2 December, Wednesday

Time Temperature Precipitation Wind Pressure Humidity
00:00 +1°C° 0.2 mm 1 mps 753 mmHg 98%
01:00 +1°C° 0.2 mm 1 mps 753 mmHg 98%
02:00 +1°C° 0.2 mm 1 mps 753 mmHg 98%
03:00 -1°C° 0.1 mm 2 mps 752 mmHg 98%
04:00 -2°C° 0.1 mm 2 mps 752 mmHg 98%
05:00 -2°C° 0.1 mm 2 mps 752 mmHg 98%
06:00 -2°C° 0.1 mm 2 mps 752 mmHg 98%
07:00 -2°C° 0.1 mm 2 mps 753 mmHg 98%
08:00 -1°C° 0.1 mm 2 mps 753 mmHg 98%
09:00 -1°C° 0.1 mm 2 mps 753 mmHg 99%
10:00 -1°C° 0.1 mm 2 mps 753 mmHg 99%
11:00 -1°C° 0.1 mm 3 mps 753 mmHg 99%
12:00 -1°C° 0.1 mm 3 mps 753 mmHg 99%
13:00 -1°C° 0.1 mm 3 mps 753 mmHg 99%
14:00 -1°C° 0.1 mm 3 mps 753 mmHg 99%
15:00 -1°C° 0.1 mm 3 mps 753 mmHg 98%
16:00 -1°C° 0.1 mm 3 mps 753 mmHg 97%
17:00 -1°C° 0.1 mm 3 mps 754 mmHg 97%
18:00 -1°C° 0 mm 3 mps 754 mmHg 97%
19:00 -2°C° 0 mm 3 mps 754 mmHg 97%
20:00 -2°C° 0 mm 3 mps 754 mmHg 97%
21:00 -2°C° 0.1 mm 3 mps 755 mmHg 97%
22:00 -2°C° 0.1 mm 3 mps 755 mmHg 97%
23:00 -2°C° 0.1 mm 3 mps 755 mmHg 97%
Show more